Tracking 35237 objects as of 5-Sep-2026
HD Live streaming from Space Station
objects crossing your sky now

STARLINK-32869

Track STARLINK-32869 now!
10-day predictions
STARLINK-32869 is classified as:


NORAD ID: 62859
Int'l Code: 2025-022F
Launch date: February 1, 2025
Source: United States (US)
Launch site: AIR FORCE WESTERN TEST RANGE (AFWTR)
Your satellite tracking list
Your tracking list is empty




NASA's NSSDC Master Catalog

Two Line Element Set (TLE):
1 62859U 25022F   26247.76487453  .00010746  00000-0  32866-3 0  9992
2 62859  53.1604  15.2421 0001139  77.3296 282.7834 15.34404370 89354
Source of the keplerian elements: AFSPC